TITAN 3C TRANSTAGE DEB, 53647

Orbit data source: Space-Track

TITAN 3C TRANSTAGE DEB, 53647 is space debris in GEO originally from a launch on Thu, 30 May 1974 UTC launched from the Air Force Eastern Test Range (AFETR). Debris objects in space refer to the collection of defunct objects orbiting the Earth. Examples of debris include non-operational satellites, rocket bodies, and fragments generated from explosions, collisions, or faulty payload assembly.

Not visible in the next 10 days
Identifier
53647, 1974-039D
Orbit
GEO
Last TLE update
9 months ago
Origin
Manufacturer
Martin Marietta
Mission
Spacecraft
Bus & Motor
Unknown
Mass
Unknown
Launch date (UTC)
1974-05-30 (51 years ago)
Launch vehicle
Unknown
Launch site
Air Force Eastern Test Range (AFETR)
Object type
Payload
Rocket body
Debris
Shape & HBR
Unknown
Radar Cross Section
RCS unknown

Expand to show TLE details & history

TLE from 9 months ago
0 TITAN 3C TRANSTAGE DEB
1 53647U 74039D   24273.63213551  .00000067  00000-0  00000-0 0  9995
2 53647   4.3498 272.7542 0236171 232.5063 124.8340  1.00609122    19
Epoch: 2024-09-29T15:10Z
TLE epoch observation values (Epoch: 2024-09-29T15:10:16.508Z)
Latitude
-0.01051°
Longitude
35.84639°
Altitude
36,272.027 km
Speed
3.036 km/s
True Right ascension
18h 09m 08s
True Declination
0° 00' 38"
Sunlit
Object was in daylight at epoch
Visualization orbit readout
Latitude
3.46022°
Longitude
103.26206°
Altitude
36,657.14 km
Speed
3.008 km/s
Apparent Right ascension
23h 01m 48s
Apparent Declination
-1° 52' 31"
Sunlit
Object is in daylight
Visualization observer readout
Local Sidereal Time
15:07:40
Azimuth
72.24° E
Elevation
-22.779°
Doppler factor
1
Orbital elements
Apogee altitude
36,686.963 km
Perigee altitude
34,699.749 km
Semi-major axis
42,071.493 km
Eccentricity
0.02362
Inclination
4.3498°
RAAN
272.7542°
Arg. of periapsis
232.5063°
True anomaly
Unknown
Mean anomaly
124.834°
Eccentric anomaly
Unknown
Mean motion
0.25151 °/min
Orbital period
1,431.33 mins
BSTAR
0
Loading maneuver chart data...
Loading SW <> Apogee altitude chart data...
Loading historical data...
Loading historical data...
Loading historical data...
Loading historical data...
Loading historical data...
Loading historical data...
Loading historical data...
Other satellites on launch #39 in the year 1974 (1974-05-30 UTC)

TITAN 3C TRANSTAGE DEB Visibility

Observer location: undefined°, undefined°

TITAN 3C TRANSTAGE DEB is likely not visible in the next few days
Span
Click to sort rows by Start time (UTC) header in descending order
Start Az.
Max El. time (UTC)
Max El. Az.
Max El.
End time (UTC)
End Az.
|